Lid_Strength_Index
3 3 3 2 4 4 5 5 4 6 6 3 3 1 1 0 -0 -0 -0 -0 -1 -1 -0 -0 -0 -0 -1 -1 -1 -1 -1 -1 -1 -1 -0 -1 -1 -1
3 4 4 4 5 5 5 5 5 4 5 2 2 2 2 2 1 0 -0 -1 -1 -0 -0 -0 -0 0 0 -0 -0 -0 -0 -0 -0 -0 -0 -0 -0 -1
3 3 4 4 4 6 6 6 7 7 4 3 2 2 3 4 3 2 1 -0 -0 -0 0 1 1 1 2 2 1 0 -0 -0 -0 -0 -0 -0 -0 -1
5 5 5 5 7 7 7 7 6 6 6 8 6 4 3 5 5 4 3 2 2 -0 -0 0 1 1 1 1 1 2 1 1 0 0 -0 -0 -1 -1
6 6 7 8 8 8 8 7 7 6 7 7 7 6 6 5 5 5 5 5 5 1 3 3 2 3 3 4 4 3 3 3 2 2 1 1 0 -1
7 7 7 8 8 8 7 7 7 7 7 8 8 7 6 5 6 6 7 6 7 4 3 3 3 4 4 4 4 4 5 4 4 4 4 3 2 1
7 6 6 6 4 5 6 7 7 8 8 8 8 8 8 7 7 6 7 6 7 6 7 7 5 4 5 5 5 5 4 4 4 4 5 5 4 3
7 7 6 2 2 1 1 2 5 8 9 8 9 9 9 8 7 7 8 8 9 7 7 8 6 6 5 5 5 5 5 4 4 4 5 5 5 4
7 7 6 2 2 6 3 3 4 4 4 6 8 8 8 7 7 8 8 8 9 7 7 8 7 6 5 4 4 3 4 3 4 4 4 5 5 5
7 5 5 5 4 5 6 6 6 6 6 5 6 6 6 5 5 6 7 7 7 6 6 9 7 7 6 5 1 1 2 4 5 5 5 5 6 6
9 7 4 5 3 1 5 6 7 7 4 2 2 1 1 1 2 5 6 7 8 7 6 7 7 7 7 6 5 2 2 3 3 5 5 5 6 6
9 8 4 3 2 1 5 8 9 8 8 7 7 6 5 5 3 5 5 6 7 8 6 6 7 7 8 8 7 7 6 4 4 4 4 3 5 4
9 8 7 3 3 3 3 8 8 7 6 7 7 7 7 6 6 6 6 6 7 7 5 5 6 7 7 8 8 7 7 7 6 5 5 5 5 4
8 8 6 4 4 4 4 4 3 3 6 7 7 6 6 6 6 5 5 6 5 6 5 5 6 7 8 9 9 7 6 6 6 6 5 5 5 4
6 6 4 4 4 5 4 4 3 6 7 7 6 6 6 5 5 5 5 5 5 5 4 5 6 7 7 9 8 8 7 7 6 6 5 5 4 4
5 7 5 4 4 5 5 6 7 8 8 8 6 5 5 5 5 5 5 5 5 5 5 4 5 5 6 6 7 8 8 8 7 7 6 6 6 5
7 9 9 9 9 8 9 9 8 8 7 7 7 7 6 6 6 5 6 6 6 6 6 5 5 4 4 5 7 6 7 8 7 7 8 8 7 6
9 10 9 10 9 9 9 9 8 7 8 7 6 6 6 6 6 6 6 6 6 6 5 4 4 6 6 5 3 5 6 6 7 8 8 8 8 6
10 10 10 9 9 9 9 9 9 8 8 7 6 6 5 6 7 8 9 9 10 9 7 5 5 5 7 8 5 3 5 7 7 8 8 8 8 7
10 9 9 9 9 9 9 9 9 9 7 6 5 6 6 9 10 11 10 11 12 11 11 9 8 6 6 6 6 6 4 5 7 8 8 8 8 5
8 8 8 9 9 9 9 9 9 7 6 6 6 7 9 11 11 10 10 10 11 11 12 11 9 7 7 5 6 6 6 5 5 6 8 9 10 10
7 7 8 8 9 9 9 9 8 6 6 7 8 10 11 10 10 10 10 11 12 11 11 11 10 9 7 6 7 6 6 6 5 4 4 5 9 11
7 8 8 8 9 9 8 8 8 6 7 8 9 10 10 11 10 10 11 10 10 11 11 11 10 8 7 7 6 6 6 7 7 7 6 4 4 5